Regional Weather Roundup
Issued by NWS

Home | Current Version | Previous Version | Graphics & Text | Print | Product List | Glossary On
Versions: 1 2 3 4 5 6 7 8 9 10 11 12 13 14 15 16 17 18 19 20 21 22 23 24 25 26 27 28 29 30 31 32 33 34 35 36 37 38 39 40 41 42 43 44 45 46 47 48 49 50
000
ASUS45 KBOI 040010
RWRID
WEATHER ROUNDUP FOR IDAHO
NATIONAL WEATHER SERVICE BOISE ID
500 PM MST TUE MAR 03 2015

NOTE: "FAIR" INDICATES FEW OR NO CLOUDS BELOW 12000 FEET
WITH NO SIGNIFICANT WEATHER AND/OR OBSTRUCTIONS TO VISIBILITY

IDZ012-014-040100-
SOUTHWEST IDAHO


CITY           SKY/WX    TMP DP  RH WIND       PRES   REMARKS
BOISE          SUNNY     43  14  31 NW17G28   30.01S
CALDWELL       SUNNY     45  12  26 NW17      30.06S
MOUNTAIN HOME  SUNNY     42  14  31 NW25      29.99R
$$

IDZ016-017-040100-
SOUTHCENTRAL IDAHO


CITY           SKY/WX    TMP DP  RH WIND       PRES   REMARKS
BURLEY         PTSUNNY   37  18  46 W10G17    29.91S WCI  30
JEROME         MOSUNNY   39  12  33 W24G31    29.94R WCI  28
TWIN FALLS     MOSUNNY   40  12  32 W22G30    29.95R WCI  30
$$

IDZ019>023-040100-
SOUTHEAST IDAHO


CITY           SKY/WX    TMP DP  RH WIND       PRES   REMARKS
IDAHO FALLS    MOSUNNY   29   5  36 CALM      29.92S
POCATELLO      MOSUNNY   30  12  47 NW6       29.95S WCI  24
REXBURG        SUNNY     25   4  40 SE5       29.90S WCI  19
$$

IDZ006-010-011-018-031-032-040100-
CENTRAL IDAHO MOUNTAINS


CITY           SKY/WX    TMP DP  RH WIND       PRES   REMARKS
MCCALL         SUNNY     30   6  36 NW9       29.96S WCI  22
STANLEY          N/A     30   4  33 NW7       29.85F WCI  23
SALMON         SUNNY     36   5  27 CALM      29.92F
CHALLIS        SUNNY     37   3  24 W10       29.85F WCI  30
$$

IDZ002-004-006-007-026-040100-
NORTHERN IDAHO


CITY           SKY/WX    TMP DP  RH WIND       PRES   REMARKS
LEWISTON       SUNNY     42  16  34 NW12      30.15F
LOWELL           N/A     40  18  41 CALM      30.16F
COEUR D`ALENE  SUNNY     37  10  32 W13       30.10S WCI  29
MULLAN PASS    SUNNY     16   7  67 NW9       29.92S WCI   4
$$



USA.gov is the U.S. government's official web portal to all federal, state and local government web resources and services.